RYR24G LGTS-EDDM

Flight info

Callsign RYR24G
Flight time N/A
Altitude 36000
Route EDASI N146 BEKVA DCT MAVAR DCT VELIT DCT NUPSO DCT ULPIN DCT MONFA DCT BAKOR DCT SOTOV/N0416F240 T101 BETOS BETOS1A
Aircraft B738/M-SDE2E3FGHIRWXY/LB1

Departure

Time 2026-05-01 09:34
Airport Thessaloniki Macedonia International Airport (LGTS)

Arrival

Time N/A
Airport Munich Airport (EDDM)
Time Latitude Longitude Altitude Speed Heading
2026-05-01 09:15 40.52345 22.97529 10 ft 0 kts 45°
2026-05-01 09:23 40.52344 22.97529 10 ft 0 kts 45°
2026-05-01 09:23 40.52336 22.97518 10 ft 2 kts 45°
2026-05-01 09:24 40.52317 22.97488 9 ft 2 kts 72°
2026-05-01 09:24 40.52314 22.97468 9 ft 2 kts 94°
2026-05-01 09:24 40.52324 22.97437 9 ft 0 kts 133°
2026-05-01 09:25 40.52329 22.97430 9 ft 0 kts 136°
2026-05-01 09:30 40.52264 22.97514 9 ft 13 kts 135°
2026-05-01 09:30 40.52184 22.97616 9 ft 17 kts 143°
2026-05-01 09:30 40.52028 22.97724 10 ft 10 kts 223°
2026-05-01 09:31 40.51976 22.97649 9 ft 3 kts 228°
2026-05-01 09:31 40.51952 22.97607 9 ft 10 kts 237°
2026-05-01 09:31 40.51872 22.97300 9 ft 21 kts 175°
2026-05-01 09:32 40.51728 22.97346 9 ft 22 kts 166°
2026-05-01 09:32 40.51376 22.97460 15 ft 27 kts 166°
2026-05-01 09:32 40.51192 22.97517 19 ft 29 kts 166°
2026-05-01 09:33 40.51000 22.97565 20 ft 23 kts 199°
2026-05-01 09:33 40.50986 22.97410 20 ft 17 kts 326°
2026-05-01 09:33 40.51108 22.97367 17 ft 47 kts 346°
2026-05-01 09:34 40.51769 22.97157 10 ft 142 kts 347°
2026-05-01 09:34 40.52923 22.96792 305 ft 187 kts 346°
2026-05-01 09:34 40.55482 22.95287 1682 ft 206 kts 331°
2026-05-01 09:35 40.56670 22.94284 2309 ft 204 kts 324°
2026-05-01 09:35 40.58815 22.91848 3693 ft 206 kts 307°
2026-05-01 09:35 40.59521 22.90239 4364 ft 207 kts 295°
2026-05-01 09:36 40.60152 22.88539 5035 ft 208 kts 297°
2026-05-01 09:36 40.60806 22.86858 5708 ft 208 kts 297°
2026-05-01 09:36 40.61464 22.85176 6365 ft 210 kts 297°
2026-05-01 09:36 40.62140 22.83454 7050 ft 212 kts 297°
2026-05-01 09:37 40.62814 22.81741 7725 ft 214 kts 297°
2026-05-01 09:37 40.64171 22.78287 9078 ft 213 kts 297°
2026-05-01 09:37 40.64849 22.76559 9756 ft 213 kts 297°
2026-05-01 09:38 40.66242 22.73010 10954 ft 226 kts 297°
2026-05-01 09:38 40.66969 22.71154 11511 ft 232 kts 297°
2026-05-01 09:38 40.67715 22.69251 12065 ft 237 kts 297°
2026-05-01 09:39 40.69252 22.65322 13174 ft 245 kts 297°
2026-05-01 09:39 40.70036 22.63317 13725 ft 248 kts 297°
2026-05-01 09:39 40.70832 22.61279 14280 ft 250 kts 297°
2026-05-01 09:40 40.71624 22.59253 14826 ft 252 kts 297°
2026-05-01 09:40 40.73266 22.55042 15899 ft 269 kts 297°
2026-05-01 09:40 40.74139 22.52802 16467 ft 282 kts 297°
2026-05-01 09:41 40.75052 22.50455 17030 ft 295 kts 297°
2026-05-01 09:41 40.76952 22.45407 18147 ft 319 kts 292°
2026-05-01 09:41 40.77679 22.42600 18698 ft 329 kts 287°
2026-05-01 09:42 40.78309 22.39672 19245 ft 340 kts 286°
2026-05-01 09:42 40.78978 22.36651 19794 ft 349 kts 287°
2026-05-01 09:42 40.80332 22.30529 20866 ft 365 kts 286°
2026-05-01 09:43 40.81763 22.23972 21968 ft 378 kts 286°
2026-05-01 09:43 40.82487 22.20641 22514 ft 384 kts 286°
2026-05-01 09:43 40.83224 22.17249 23063 ft 388 kts 286°
2026-05-01 09:44 40.84707 22.10392 24154 ft 396 kts 286°
2026-05-01 09:44 40.85461 22.06895 24703 ft 399 kts 286°
2026-05-01 09:44 40.86220 22.03369 25253 ft 401 kts 286°
2026-05-01 09:45 40.86980 21.99833 25801 ft 403 kts 286°
2026-05-01 09:45 40.88500 21.92740 26893 ft 406 kts 286°
2026-05-01 09:45 40.89267 21.89150 27443 ft 406 kts 286°
2026-05-01 09:46 40.90037 21.85543 27995 ft 407 kts 286°
2026-05-01 09:46 40.90791 21.82004 28538 ft 406 kts 286°
2026-05-01 09:46 40.91555 21.78413 29089 ft 406 kts 286°
2026-05-01 09:46 40.92344 21.74876 29634 ft 405 kts 289°
2026-05-01 09:47 40.93354 21.71428 30183 ft 403 kts 295°
2026-05-01 09:47 40.94663 21.68176 30733 ft 401 kts 303°
2026-05-01 09:47 40.96286 21.65243 31280 ft 399 kts 310°
2026-05-01 09:47 40.98085 21.62441 31835 ft 396 kts 311°
2026-05-01 09:48 40.99851 21.59679 32384 ft 393 kts 310°
2026-05-01 09:48 41.01567 21.56952 32927 ft 390 kts 310°
2026-05-01 09:48 41.03289 21.54227 33475 ft 386 kts 310°
2026-05-01 09:48 41.05017 21.51509 34029 ft 382 kts 310°
2026-05-01 09:49 41.06720 21.48836 34580 ft 378 kts 310°
2026-05-01 09:49 41.08386 21.46218 35125 ft 373 kts 310°
2026-05-01 09:49 41.10033 21.43631 35672 ft 368 kts 310°
2026-05-01 09:49 41.11645 21.41099 35990 ft 369 kts 310°
2026-05-01 09:50 41.15007 21.35816 36003 ft 386 kts 310°
2026-05-01 09:50 41.18512 21.30302 35999 ft 403 kts 310°
2026-05-01 09:51 41.22178 21.24525 35999 ft 418 kts 310°
2026-05-01 09:51 41.25947 21.18574 36017 ft 431 kts 310°
2026-05-01 09:52 41.29817 21.12452 36007 ft 444 kts 310°
2026-05-01 09:52 41.33783 21.06165 36000 ft 453 kts 310°
2026-05-01 09:53 41.37851 20.99705 35998 ft 461 kts 310°
2026-05-01 09:53 41.41927 20.93218 35999 ft 461 kts 310°
2026-05-01 09:54 41.45990 20.86736 35999 ft 459 kts 310°
2026-05-01 09:54 41.50046 20.80253 36000 ft 460 kts 310°
2026-05-01 09:55 41.54127 20.73716 36000 ft 460 kts 310°
2026-05-01 09:55 41.58173 20.67221 36000 ft 460 kts 310°
2026-05-01 09:56 41.62231 20.60692 35999 ft 460 kts 310°
2026-05-01 09:56 41.66278 20.54166 35999 ft 460 kts 310°
2026-05-01 09:57 41.70151 20.47435 36000 ft 460 kts 306°
2026-05-01 09:57 41.73843 20.40483 35999 ft 460 kts 306°
2026-05-01 09:58 41.77560 20.33619 36000 ft 460 kts 306°
2026-05-01 09:58 41.81244 20.26793 36000 ft 460 kts 306°
2026-05-01 09:59 41.84964 20.19894 36000 ft 460 kts 306°
2026-05-01 09:59 41.88654 20.13042 36000 ft 460 kts 306°
2026-05-01 10:00 41.92342 20.06179 35999 ft 460 kts 306°
2026-05-01 10:00 41.96028 19.99304 36000 ft 460 kts 306°
2026-05-01 10:01 41.99688 19.92464 35999 ft 460 kts 306°
2026-05-01 10:01 42.03406 19.85500 35999 ft 460 kts 306°
2026-05-01 10:02 42.07087 19.78591 35999 ft 460 kts 306°
2026-05-01 10:02 42.10741 19.71715 36000 ft 460 kts 306°
2026-05-01 10:03 42.14424 19.64771 36000 ft 460 kts 306°
2026-05-01 10:03 42.18102 19.57820 36000 ft 460 kts 306°
2026-05-01 10:04 42.21744 19.50920 36000 ft 460 kts 306°
2026-05-01 10:04 42.25395 19.43989 36000 ft 460 kts 306°
2026-05-01 10:05 42.29024 19.37084 36000 ft 460 kts 306°
2026-05-01 10:05 42.32698 19.30075 35999 ft 460 kts 305°
2026-05-01 10:06 42.36355 19.23084 35999 ft 460 kts 305°
2026-05-01 10:06 42.39999 19.16101 35999 ft 460 kts 305°
2026-05-01 10:07 42.43648 19.09092 36000 ft 460 kts 305°
2026-05-01 10:07 42.47264 19.02131 36000 ft 460 kts 305°
2026-05-01 10:08 42.52734 18.91570 35999 ft 460 kts 305°
2026-05-01 10:09 42.56374 18.84521 36000 ft 460 kts 305°
2026-05-01 10:09 42.59973 18.77535 35999 ft 460 kts 305°
2026-05-01 10:10 42.63599 18.70481 35999 ft 460 kts 305°
2026-05-01 10:10 42.69022 18.59900 35999 ft 460 kts 305°
2026-05-01 10:11 42.72636 18.52826 35999 ft 460 kts 305°
2026-05-01 10:11 42.76237 18.45763 35999 ft 460 kts 305°
2026-05-01 10:12 42.79219 18.39899 35999 ft 460 kts 305°
2026-05-01 10:13 42.85120 18.28265 36000 ft 460 kts 304°
2026-05-01 10:13 42.88660 18.21265 36000 ft 460 kts 304°
2026-05-01 10:14 42.94023 18.10627 36000 ft 460 kts 304°
2026-05-01 10:14 42.97589 18.03533 36000 ft 460 kts 304°
2026-05-01 10:15 43.01167 17.96397 35999 ft 460 kts 304°
2026-05-01 10:15 43.04705 17.89324 35999 ft 460 kts 304°
2026-05-01 10:16 43.08263 17.82194 35999 ft 460 kts 304°
2026-05-01 10:17 43.13555 17.71556 36000 ft 460 kts 304°
2026-05-01 10:17 43.18860 17.60857 36000 ft 460 kts 304°
2026-05-01 10:18 43.24189 17.50069 36000 ft 460 kts 304°
2026-05-01 10:19 43.27690 17.42961 36000 ft 460 kts 304°
2026-05-01 10:19 43.31246 17.35722 36000 ft 460 kts 304°
2026-05-01 10:20 43.36565 17.25007 35999 ft 460 kts 307°
2026-05-01 10:20 43.40442 17.18224 35999 ft 460 kts 308°
2026-05-01 10:21 43.46235 17.07937 35999 ft 460 kts 308°
2026-05-01 10:22 43.52011 16.97610 36000 ft 460 kts 307°
2026-05-01 10:23 43.57750 16.87296 35999 ft 460 kts 307°
2026-05-01 10:23 43.63506 16.76908 35999 ft 460 kts 307°
2026-05-01 10:24 43.71138 16.63074 35999 ft 460 kts 307°
2026-05-01 10:25 43.78746 16.49216 35999 ft 460 kts 307°
2026-05-01 10:26 43.82586 16.42198 35999 ft 460 kts 307°
2026-05-01 10:27 43.90113 16.28390 36000 ft 460 kts 307°
2026-05-01 10:28 43.95844 16.17834 36000 ft 460 kts 307°
2026-05-01 10:28 44.01562 16.07262 36000 ft 460 kts 307°
2026-05-01 10:29 44.07275 15.96662 35999 ft 460 kts 307°
2026-05-01 10:30 44.14819 15.82509 35999 ft 460 kts 305°
2026-05-01 10:31 44.21892 15.67736 36000 ft 460 kts 304°
2026-05-01 10:32 44.27237 15.56610 36000 ft 460 kts 304°
2026-05-01 10:33 44.34323 15.41809 36000 ft 460 kts 304°
2026-05-01 10:34 44.39618 15.30704 36000 ft 460 kts 303°
2026-05-01 10:34 44.43173 15.23225 35999 ft 460 kts 303°
2026-05-01 10:35 44.48478 15.12031 36000 ft 460 kts 303°
2026-05-01 10:35 44.51990 15.04595 36000 ft 460 kts 303°
2026-05-01 10:36 44.57303 14.93312 36000 ft 460 kts 303°
2026-05-01 10:37 44.60812 14.85834 36000 ft 460 kts 303°
2026-05-01 10:37 44.66077 14.74580 35999 ft 460 kts 303°
2026-05-01 10:38 44.69562 14.67106 35999 ft 460 kts 304°
2026-05-01 10:38 44.73447 14.59990 36000 ft 460 kts 310°
2026-05-01 10:39 44.77532 14.53089 35999 ft 460 kts 309°
2026-05-01 10:39 44.80903 14.47267 35999 ft 460 kts 309°
2026-05-01 10:40 44.84964 14.40265 35999 ft 460 kts 309°
2026-05-01 10:40 44.88979 14.33322 36000 ft 460 kts 309°
2026-05-01 10:41 44.93024 14.26307 36000 ft 460 kts 309°
2026-05-01 10:42 44.99067 14.15797 36000 ft 460 kts 309°
2026-05-01 10:42 45.03085 14.08786 36000 ft 460 kts 309°
2026-05-01 10:43 45.07088 14.01784 35999 ft 460 kts 309°
2026-05-01 10:43 45.11086 13.94776 36000 ft 460 kts 309°
2026-05-01 10:44 45.15089 13.87739 36000 ft 460 kts 309°
2026-05-01 10:44 45.19076 13.80712 36000 ft 460 kts 309°
2026-05-01 10:45 45.23051 13.73690 36000 ft 460 kts 309°
2026-05-01 10:45 45.27037 13.66630 36000 ft 460 kts 309°
2026-05-01 10:46 45.31016 13.59567 36000 ft 460 kts 309°
2026-05-01 10:46 45.35015 13.52449 36000 ft 460 kts 309°
2026-05-01 10:47 45.39005 13.45331 36000 ft 460 kts 309°
2026-05-01 10:47 45.42974 13.38230 36000 ft 460 kts 309°
2026-05-01 10:48 45.46951 13.31106 35999 ft 460 kts 308°
2026-05-01 10:48 45.51312 13.24471 36000 ft 460 kts 317°
2026-05-01 10:49 45.55976 13.18257 36000 ft 460 kts 316°
2026-05-01 10:49 45.60588 13.11979 36000 ft 460 kts 316°
2026-05-01 10:50 45.65214 13.05710 36000 ft 460 kts 316°
2026-05-01 10:50 45.69833 12.99439 35999 ft 460 kts 316°
2026-05-01 10:51 45.74467 12.93138 35999 ft 460 kts 316°
2026-05-01 10:51 45.79114 12.86806 35999 ft 460 kts 316°
2026-05-01 10:52 45.83720 12.80517 35999 ft 460 kts 316°
2026-05-01 10:52 45.88346 12.74185 35999 ft 460 kts 316°
2026-05-01 10:53 45.92887 12.67955 35999 ft 460 kts 316°
2026-05-01 10:53 45.97479 12.61641 35999 ft 460 kts 316°
2026-05-01 10:54 46.02073 12.55308 35999 ft 460 kts 316°
2026-05-01 10:54 46.06664 12.48965 35999 ft 460 kts 316°
2026-05-01 10:55 46.11255 12.42607 36000 ft 460 kts 316°
2026-05-01 10:55 46.15865 12.36208 36000 ft 460 kts 316°
2026-05-01 10:56 46.20444 12.29834 35999 ft 460 kts 316°
2026-05-01 10:56 46.25025 12.23443 35999 ft 460 kts 316°
2026-05-01 10:57 46.29633 12.16997 35999 ft 460 kts 316°
2026-05-01 10:57 46.34198 12.10599 35999 ft 460 kts 316°
2026-05-01 10:58 46.38764 12.04180 35999 ft 460 kts 316°
2026-05-01 10:58 46.43334 11.97743 36000 ft 460 kts 316°
2026-05-01 10:59 46.51876 11.85665 36000 ft 460 kts 316°